ITY118 LICD-LIEA

Flight info

Callsign ITY118
Flight time 1h 13m
Altitude 18000
Route DOBIX M740 PAN/N0394F430 DCT MEGAN DCT NEVOT DCT KOVAS DCT TEKSA DCT SODIO
Aircraft HDJT/L-SABDGRWY/H

Departure

Time 2026-05-07 18:56
Airport Lampedusa Airport (LICD)

Arrival

Time 2026-05-07 20:10
Airport Alghero-Fertilia Airport (LIEA)
Time Latitude Longitude Altitude Speed Heading
2026-05-07 18:51 35.49995 12.61877 49 ft 0 kts 132°
2026-05-07 18:52 35.49991 12.61881 51 ft 5 kts 153°
2026-05-07 18:52 35.49953 12.61836 52 ft 10 kts 261°
2026-05-07 18:52 35.49942 12.61753 52 ft 10 kts 261°
2026-05-07 18:53 35.49932 12.61671 51 ft 11 kts 260°
2026-05-07 18:53 35.49913 12.61577 48 ft 8 kts 212°
2026-05-07 18:53 35.49867 12.61596 48 ft 11 kts 156°
2026-05-07 18:53 35.49790 12.61612 47 ft 13 kts 235°
2026-05-07 18:54 35.49762 12.61457 45 ft 24 kts 261°
2026-05-07 18:54 35.49728 12.61234 42 ft 28 kts 259°
2026-05-07 18:54 35.49700 12.61000 40 ft 27 kts 264°
2026-05-07 18:54 35.49677 12.60851 39 ft 1 kts 175°
2026-05-07 18:55 35.49670 12.60878 39 ft 12 kts 79°
2026-05-07 18:55 35.49678 12.60924 40 ft 0 kts 82°
2026-05-07 18:55 35.49689 12.61008 40 ft 43 kts 81°
2026-05-07 18:55 35.49790 12.61734 49 ft 126 kts 79°
2026-05-07 18:56 35.49969 12.62864 413 ft 141 kts 72°
2026-05-07 18:56 35.50156 12.64120 762 ft 157 kts 80°
2026-05-07 18:56 35.50301 12.65527 1186 ft 174 kts 80°
2026-05-07 18:56 35.50492 12.67052 1706 ft 187 kts 79°
2026-05-07 18:57 35.50717 12.68675 2244 ft 198 kts 77°
2026-05-07 18:57 35.51287 12.70221 2777 ft 203 kts 49°
2026-05-07 18:57 35.52323 12.71384 3354 ft 203 kts 24°
2026-05-07 18:57 35.53635 12.71953 3963 ft 199 kts
2026-05-07 18:58 35.54954 12.71939 4513 ft 181 kts 346°
2026-05-07 18:58 35.56214 12.71833 4911 ft 184 kts 346°
2026-05-07 18:58 35.57563 12.71713 5394 ft 204 kts 347°
2026-05-07 18:58 35.59037 12.71591 5968 ft 219 kts 348°
2026-05-07 18:59 35.60601 12.71466 6602 ft 231 kts 348°
2026-05-07 18:59 35.62236 12.71334 7261 ft 240 kts 347°
2026-05-07 18:59 35.63926 12.71195 7958 ft 247 kts 346°
2026-05-07 18:59 35.65663 12.71052 8702 ft 253 kts 346°
2026-05-07 19:00 35.67415 12.70908 9467 ft 258 kts 345°
2026-05-07 19:00 35.69219 12.70760 10223 ft 262 kts 345°
2026-05-07 19:00 35.71057 12.70608 10965 ft 266 kts 344°
2026-05-07 19:00 35.72914 12.70455 11729 ft 269 kts 344°
2026-05-07 19:01 35.74796 12.70300 12512 ft 273 kts 343°
2026-05-07 19:01 35.76700 12.70142 13323 ft 275 kts 343°
2026-05-07 19:01 35.78630 12.69983 14091 ft 278 kts 343°
2026-05-07 19:01 35.80505 12.69713 14807 ft 269 kts 333°
2026-05-07 19:02 35.82270 12.69009 15556 ft 258 kts 322°
2026-05-07 19:02 35.83795 12.67989 16315 ft 247 kts 313°
2026-05-07 19:02 35.85203 12.66806 17064 ft 245 kts 313°
2026-05-07 19:02 35.86620 12.65645 17803 ft 245 kts 312°
2026-05-07 19:03 35.88076 12.64433 17904 ft 256 kts 313°
2026-05-07 19:03 35.89621 12.63138 17909 ft 281 kts 313°
2026-05-07 19:03 35.91318 12.61726 17912 ft 305 kts 315°
2026-05-07 19:03 35.93146 12.60224 17911 ft 324 kts 315°
2026-05-07 19:04 35.95067 12.58640 17911 ft 339 kts 316°
2026-05-07 19:04 35.97055 12.56995 17911 ft 347 kts 316°
2026-05-07 19:04 35.99059 12.55339 17910 ft 346 kts 316°
2026-05-07 19:04 36.01032 12.53702 17913 ft 346 kts 316°
2026-05-07 19:05 36.03028 12.52039 17910 ft 346 kts 316°
2026-05-07 19:05 36.05026 12.50378 17911 ft 346 kts 316°
2026-05-07 19:05 36.07023 12.48717 17911 ft 346 kts 316°
2026-05-07 19:05 36.09021 12.47052 17913 ft 346 kts 316°
2026-05-07 19:06 36.11026 12.45380 17916 ft 349 kts 316°
2026-05-07 19:06 36.15054 12.42023 17910 ft 349 kts 316°
2026-05-07 19:06 36.17067 12.40342 17914 ft 349 kts 317°
2026-05-07 19:07 36.19087 12.38652 17910 ft 351 kts 317°
2026-05-07 19:07 36.21112 12.36962 17913 ft 351 kts 317°
2026-05-07 19:07 36.23134 12.35272 17913 ft 351 kts 317°
2026-05-07 19:07 36.25155 12.33579 17913 ft 351 kts 317°
2026-05-07 19:08 36.27150 12.31908 17913 ft 350 kts 317°
2026-05-07 19:08 36.29172 12.30213 17913 ft 350 kts 317°
2026-05-07 19:08 36.31193 12.28519 17916 ft 350 kts 317°
2026-05-07 19:08 36.33211 12.26826 17922 ft 350 kts 317°
2026-05-07 19:09 36.35228 12.25132 17918 ft 350 kts 317°
2026-05-07 19:09 36.37252 12.23431 17914 ft 352 kts 318°
2026-05-07 19:09 36.39286 12.21720 17915 ft 353 kts 318°
2026-05-07 19:09 36.41321 12.20010 17915 ft 353 kts 318°
2026-05-07 19:10 36.43353 12.18300 17908 ft 353 kts 318°
2026-05-07 19:10 36.45384 12.16588 17909 ft 353 kts 318°
2026-05-07 19:10 36.47418 12.14874 17909 ft 353 kts 318°
2026-05-07 19:10 36.49459 12.13174 18166 ft 355 kts 324°
2026-05-07 19:11 36.51670 12.11813 17848 ft 360 kts 332°
2026-05-07 19:11 36.53971 12.10648 17901 ft 355 kts 330°
2026-05-07 19:11 36.56237 12.09450 17898 ft 353 kts 330°
2026-05-07 19:11 36.58508 12.08240 17893 ft 355 kts 330°
2026-05-07 19:12 36.60786 12.07055 17895 ft 355 kts 331°
2026-05-07 19:12 36.63083 12.05900 17901 ft 355 kts 332°
2026-05-07 19:12 36.65376 12.04755 17897 ft 355 kts 331°
2026-05-07 19:12 36.67660 12.03593 17894 ft 353 kts 331°
2026-05-07 19:13 36.69904 12.02446 17896 ft 353 kts 331°
2026-05-07 19:13 36.72182 12.01287 17893 ft 353 kts 331°
2026-05-07 19:13 36.74461 12.00133 17889 ft 353 kts 331°
2026-05-07 19:13 36.76731 11.98977 17889 ft 353 kts 331°
2026-05-07 19:14 36.79010 11.97823 17884 ft 354 kts 332°
2026-05-07 19:14 36.81407 11.96987 17888 ft 361 kts 343°
2026-05-07 19:14 36.83929 11.96685 17891 ft 368 kts 353°
2026-05-07 19:14 36.86509 11.96792 17893 ft 371 kts 356°
2026-05-07 19:15 36.89096 11.96903 17891 ft 373 kts 356°
2026-05-07 19:15 36.91659 11.96997 17893 ft 373 kts 356°
2026-05-07 19:15 36.94251 11.97103 17897 ft 373 kts 356°
2026-05-07 19:15 36.96847 11.97218 17901 ft 373 kts 356°
2026-05-07 19:16 36.99445 11.97327 17904 ft 373 kts 356°
2026-05-07 19:16 37.02042 11.97432 17908 ft 373 kts 356°
2026-05-07 19:16 37.04645 11.97541 17910 ft 373 kts 356°
2026-05-07 19:16 37.07243 11.97651 17914 ft 373 kts 356°
2026-05-07 19:17 37.09841 11.97759 17914 ft 373 kts 356°
2026-05-07 19:17 37.12443 11.97867 17919 ft 374 kts 358°
2026-05-07 19:17 37.15045 11.97977 17924 ft 374 kts 358°
2026-05-07 19:17 37.17645 11.98086 17925 ft 374 kts 358°
2026-05-07 19:18 37.20247 11.98196 17928 ft 374 kts 358°
2026-05-07 19:18 37.22850 11.98305 17928 ft 374 kts 358°
2026-05-07 19:18 37.25453 11.98414 17928 ft 374 kts 358°
2026-05-07 19:18 37.28018 11.98523 17929 ft 374 kts 358°
2026-05-07 19:19 37.30624 11.98632 17934 ft 374 kts 358°
2026-05-07 19:19 37.33230 11.98742 17931 ft 374 kts 358°
2026-05-07 19:19 37.35833 11.98852 17928 ft 371 kts 358°
2026-05-07 19:19 37.38404 11.98962 17928 ft 369 kts 358°
2026-05-07 19:20 37.40972 11.99068 17924 ft 369 kts 358°
2026-05-07 19:20 37.43542 11.99176 17924 ft 370 kts 358°
2026-05-07 19:20 37.46113 11.99286 17924 ft 370 kts 358°
2026-05-07 19:20 37.48683 11.99342 17929 ft 367 kts 353°
2026-05-07 19:21 37.51189 11.98859 17936 ft 362 kts 341°
2026-05-07 19:21 37.53545 11.97810 17932 ft 357 kts 330°
2026-05-07 19:21 37.55676 11.96253 17933 ft 352 kts 320°
2026-05-07 19:21 37.57503 11.94282 17937 ft 347 kts 309°
2026-05-07 19:22 37.59096 11.92010 17932 ft 346 kts 307°
2026-05-07 19:22 37.60685 11.89730 17933 ft 346 kts 308°
2026-05-07 19:22 37.62278 11.87462 17937 ft 344 kts 308°
2026-05-07 19:22 37.63864 11.85179 17936 ft 346 kts 307°
2026-05-07 19:23 37.65448 11.82892 17934 ft 345 kts 307°
2026-05-07 19:23 37.67033 11.80610 17934 ft 345 kts 308°
2026-05-07 19:23 37.68622 11.78321 17935 ft 346 kts 307°
2026-05-07 19:23 37.70205 11.76037 17938 ft 345 kts 307°
2026-05-07 19:24 37.71791 11.73748 17935 ft 345 kts 307°
2026-05-07 19:24 37.73351 11.71494 17935 ft 345 kts 307°
2026-05-07 19:24 37.74934 11.69206 17935 ft 345 kts 307°
2026-05-07 19:24 37.76514 11.66921 17935 ft 345 kts 307°
2026-05-07 19:25 37.78094 11.64636 17934 ft 344 kts 307°
2026-05-07 19:25 37.79666 11.62356 17934 ft 344 kts 307°
2026-05-07 19:25 37.81246 11.60067 17937 ft 344 kts 307°
2026-05-07 19:25 37.82819 11.57785 17936 ft 344 kts 307°
2026-05-07 19:26 37.84394 11.55498 17940 ft 344 kts 307°
2026-05-07 19:26 37.85949 11.53241 17940 ft 344 kts 307°
2026-05-07 19:26 37.87522 11.50953 17940 ft 344 kts 307°
2026-05-07 19:26 37.89094 11.48667 17940 ft 344 kts 307°
2026-05-07 19:27 37.90661 11.46385 17940 ft 344 kts 307°
2026-05-07 19:27 37.92237 11.44090 17942 ft 344 kts 307°
2026-05-07 19:27 37.93808 11.41799 17942 ft 344 kts 307°
2026-05-07 19:27 37.95380 11.39506 17942 ft 344 kts 307°
2026-05-07 19:28 37.96950 11.37216 17939 ft 344 kts 307°
2026-05-07 19:28 37.98516 11.34927 17939 ft 344 kts 307°
2026-05-07 19:28 38.00085 11.32634 17939 ft 344 kts 307°
2026-05-07 19:28 38.01652 11.30341 17945 ft 344 kts 307°
2026-05-07 19:29 38.03196 11.28081 17941 ft 342 kts 307°
2026-05-07 19:29 38.04753 11.25800 17941 ft 342 kts 307°
2026-05-07 19:29 38.06310 11.23517 17941 ft 342 kts 307°
2026-05-07 19:29 38.07869 11.21230 17941 ft 342 kts 307°
2026-05-07 19:30 38.09427 11.18942 17937 ft 342 kts 307°
2026-05-07 19:30 38.10980 11.16661 17937 ft 341 kts 307°
2026-05-07 19:30 38.12531 11.14380 17946 ft 342 kts 307°
2026-05-07 19:30 38.14083 11.12098 17939 ft 341 kts 307°
2026-05-07 19:31 38.15633 11.09815 17936 ft 341 kts 307°
2026-05-07 19:31 38.17181 11.07534 17936 ft 341 kts 307°
2026-05-07 19:31 38.18731 11.05249 17936 ft 341 kts 307°
2026-05-07 19:31 38.20279 11.02965 17936 ft 341 kts 307°
2026-05-07 19:32 38.21807 11.00709 17939 ft 341 kts 307°
2026-05-07 19:32 38.23356 10.98420 17939 ft 341 kts 307°
2026-05-07 19:32 38.24901 10.96136 17945 ft 341 kts 307°
2026-05-07 19:32 38.26445 10.93850 17944 ft 341 kts 307°
2026-05-07 19:33 38.27995 10.91556 17941 ft 341 kts 307°
2026-05-07 19:33 38.29539 10.89268 17941 ft 341 kts 307°
2026-05-07 19:33 38.31086 10.86975 17941 ft 341 kts 307°
2026-05-07 19:33 38.32630 10.84685 17947 ft 341 kts 307°
2026-05-07 19:34 38.34173 10.82392 17944 ft 340 kts 306°
2026-05-07 19:34 38.35717 10.80098 17943 ft 340 kts 306°
2026-05-07 19:34 38.37236 10.77839 17943 ft 340 kts 306°
2026-05-07 19:34 38.38779 10.75542 17943 ft 340 kts 306°
2026-05-07 19:35 38.40323 10.73243 17942 ft 341 kts 306°
2026-05-07 19:35 38.41872 10.70934 17948 ft 343 kts 306°
2026-05-07 19:35 38.42900 10.69401 17948 ft 343 kts 306°
2026-05-07 19:35 38.44973 10.66310 17948 ft 343 kts 306°
2026-05-07 19:36 38.46002 10.64772 17950 ft 343 kts 306°
2026-05-07 19:36 38.47551 10.62458 17950 ft 343 kts 306°
2026-05-07 19:36 38.49098 10.60143 17950 ft 343 kts 306°
2026-05-07 19:36 38.50646 10.57829 17950 ft 343 kts 306°
2026-05-07 19:37 38.52711 10.54735 17947 ft 347 kts 307°
2026-05-07 19:37 38.53774 10.53141 17947 ft 347 kts 307°
2026-05-07 19:37 38.55317 10.50828 17948 ft 347 kts 307°
2026-05-07 19:37 38.56886 10.48475 17950 ft 347 kts 307°
2026-05-07 19:38 38.58451 10.46123 17950 ft 347 kts 307°
2026-05-07 19:38 38.60019 10.43767 17950 ft 347 kts 307°
2026-05-07 19:38 38.61582 10.41416 17953 ft 347 kts 307°
2026-05-07 19:38 38.63150 10.39057 17953 ft 347 kts 307°
2026-05-07 19:39 38.64713 10.36702 17953 ft 347 kts 307°
2026-05-07 19:39 38.66275 10.34348 17953 ft 347 kts 307°
2026-05-07 19:39 38.67815 10.32025 17953 ft 347 kts 306°
2026-05-07 19:39 38.69375 10.29668 17953 ft 347 kts 307°
2026-05-07 19:40 38.70937 10.27310 17962 ft 347 kts 306°
2026-05-07 19:40 38.72496 10.24951 17962 ft 347 kts 306°
2026-05-07 19:40 38.74058 10.22590 17962 ft 347 kts 306°
2026-05-07 19:40 38.75616 10.20230 17972 ft 347 kts 306°
2026-05-07 19:41 38.77173 10.17870 17961 ft 346 kts 306°
2026-05-07 19:41 38.78729 10.15512 17961 ft 346 kts 306°
2026-05-07 19:41 38.80283 10.13153 17961 ft 346 kts 306°
2026-05-07 19:41 38.81837 10.10794 17961 ft 346 kts 306°
2026-05-07 19:42 38.83391 10.08432 17961 ft 346 kts 306°
2026-05-07 19:42 38.84944 10.06070 17961 ft 346 kts 306°
2026-05-07 19:42 38.86500 10.03702 17961 ft 346 kts 306°
2026-05-07 19:42 38.88054 10.01335 17962 ft 346 kts 306°
2026-05-07 19:43 38.89606 9.98969 17964 ft 346 kts 306°
2026-05-07 19:43 38.91138 9.96633 17967 ft 346 kts 306°
2026-05-07 19:43 38.92689 9.94264 17967 ft 346 kts 306°
2026-05-07 19:43 38.94242 9.91891 17966 ft 347 kts 307°
2026-05-07 19:44 38.95801 9.89509 17966 ft 347 kts 307°
2026-05-07 19:44 38.97353 9.87134 17966 ft 347 kts 306°
2026-05-07 19:44 38.98908 9.84754 17966 ft 347 kts 306°
2026-05-07 19:44 39.00458 9.82379 17969 ft 349 kts 306°
2026-05-07 19:45 39.02024 9.79976 17969 ft 351 kts 306°
2026-05-07 19:45 39.03597 9.77574 17968 ft 351 kts 307°
2026-05-07 19:45 39.05372 9.75395 17970 ft 355 kts 315°
2026-05-07 19:45 39.07214 9.73327 17971 ft 355 kts 314°
2026-05-07 19:46 39.09050 9.71207 17970 ft 354 kts 314°
2026-05-07 19:46 39.10887 9.69088 17971 ft 355 kts 314°
2026-05-07 19:46 39.12740 9.66978 17971 ft 355 kts 314°
2026-05-07 19:46 39.14590 9.64868 17971 ft 355 kts 314°
2026-05-07 19:47 39.16433 9.62752 17971 ft 355 kts 314°
2026-05-07 19:47 39.18275 9.60636 17976 ft 355 kts 314°
2026-05-07 19:47 39.20107 9.58539 17970 ft 350 kts 314°
2026-05-07 19:47 39.21927 9.56448 17969 ft 350 kts 314°
2026-05-07 19:48 39.23745 9.54356 17971 ft 350 kts 314°
2026-05-07 19:48 39.25560 9.52269 17970 ft 350 kts 314°
2026-05-07 19:48 39.27356 9.50204 17970 ft 350 kts 314°
2026-05-07 19:48 39.29196 9.48084 17971 ft 350 kts 314°
2026-05-07 19:49 39.30992 9.46016 17974 ft 350 kts 313°
2026-05-07 19:49 39.32813 9.43914 17971 ft 351 kts 313°
2026-05-07 19:49 39.34642 9.41802 17970 ft 352 kts 313°
2026-05-07 19:49 39.36466 9.39697 17968 ft 351 kts 313°
2026-05-07 19:50 39.38292 9.37587 17967 ft 352 kts 313°
2026-05-07 19:50 39.40115 9.35478 17968 ft 351 kts 313°
2026-05-07 19:50 39.41940 9.33365 17966 ft 351 kts 313°
2026-05-07 19:50 39.43734 9.31287 17972 ft 350 kts 313°
2026-05-07 19:51 39.45541 9.29193 17966 ft 348 kts 313°
2026-05-07 19:51 39.47347 9.27098 17964 ft 348 kts 313°
2026-05-07 19:51 39.49151 9.25004 17969 ft 348 kts 313°
2026-05-07 19:51 39.50956 9.22906 17960 ft 348 kts 313°
2026-05-07 19:52 39.52757 9.20813 17964 ft 348 kts 313°
2026-05-07 19:52 39.54564 9.18710 17964 ft 348 kts 313°
2026-05-07 19:52 39.56365 9.16612 17962 ft 348 kts 313°
2026-05-07 19:52 39.58170 9.14510 17964 ft 348 kts 313°
2026-05-07 19:53 39.59974 9.12408 17962 ft 348 kts 313°
2026-05-07 19:53 39.61777 9.10303 17963 ft 348 kts 313°
2026-05-07 19:53 39.63578 9.08199 17956 ft 350 kts 313°
2026-05-07 19:53 39.65497 9.06260 17960 ft 357 kts 323°
2026-05-07 19:54 39.67612 9.04551 17959 ft 357 kts 323°
2026-05-07 19:54 39.69704 9.02812 17960 ft 356 kts 323°
2026-05-07 19:54 39.71785 9.01063 17960 ft 356 kts 323°
2026-05-07 19:54 39.73883 8.99325 17960 ft 356 kts 324°
2026-05-07 19:55 39.75981 8.97595 17961 ft 357 kts 324°
2026-05-07 19:55 39.78047 8.95879 17965 ft 357 kts 323°
2026-05-07 19:55 39.80137 8.94138 17962 ft 357 kts 323°
2026-05-07 19:55 39.82232 8.92396 17957 ft 357 kts 323°
2026-05-07 19:56 39.84322 8.90658 17954 ft 357 kts 324°
2026-05-07 19:56 39.86410 8.88919 17953 ft 357 kts 323°
2026-05-07 19:56 39.88504 8.87173 17956 ft 357 kts 323°
2026-05-07 19:56 39.90602 8.85422 17762 ft 358 kts 324°
2026-05-07 19:57 39.92699 8.83672 17312 ft 359 kts 324°
2026-05-07 19:57 39.94809 8.81909 16842 ft 359 kts 325°
2026-05-07 19:57 39.96898 8.80164 16369 ft 355 kts 325°
2026-05-07 19:57 39.98972 8.78431 15896 ft 353 kts 326°
2026-05-07 19:58 40.01027 8.76710 15433 ft 350 kts 326°
2026-05-07 19:58 40.03041 8.75021 14976 ft 347 kts 326°
2026-05-07 19:58 40.05070 8.73318 14519 ft 344 kts 327°
2026-05-07 19:58 40.07079 8.71634 14077 ft 342 kts 327°
2026-05-07 19:59 40.09070 8.69963 13603 ft 338 kts 328°
2026-05-07 19:59 40.11043 8.68304 13140 ft 337 kts 328°
2026-05-07 19:59 40.13010 8.66650 12695 ft 335 kts 328°
2026-05-07 19:59 40.14965 8.65005 12254 ft 334 kts 328°
2026-05-07 20:00 40.16915 8.63363 11815 ft 332 kts 327°
2026-05-07 20:00 40.18859 8.61727 11380 ft 331 kts 327°
2026-05-07 20:00 40.20747 8.60134 10956 ft 315 kts 327°
2026-05-07 20:00 40.22558 8.58606 10549 ft 304 kts 327°
2026-05-07 20:01 40.24330 8.57109 10146 ft 303 kts 327°
2026-05-07 20:01 40.26106 8.55611 9741 ft 303 kts 327°
2026-05-07 20:01 40.27739 8.53940 9328 ft 302 kts 313°
2026-05-07 20:01 40.29016 8.51779 8928 ft 299 kts 302°
2026-05-07 20:02 40.30149 8.49505 8532 ft 298 kts 302°
2026-05-07 20:02 40.31294 8.47256 8139 ft 296 kts 303°
2026-05-07 20:02 40.32434 8.45019 7746 ft 294 kts 303°
2026-05-07 20:02 40.33565 8.42784 7363 ft 293 kts 303°
2026-05-07 20:03 40.34686 8.40563 6980 ft 290 kts 303°
2026-05-07 20:03 40.35775 8.38409 6604 ft 277 kts 302°
2026-05-07 20:03 40.36814 8.36354 6248 ft 265 kts 303°
2026-05-07 20:03 40.37812 8.34379 5925 ft 254 kts 303°
2026-05-07 20:04 40.38768 8.32481 5629 ft 245 kts 303°
2026-05-07 20:04 40.39699 8.30635 5335 ft 239 kts 303°
2026-05-07 20:04 40.40608 8.28830 5042 ft 236 kts 303°
2026-05-07 20:04 40.41431 8.26972 4740 ft 235 kts 294°
2026-05-07 20:05 40.42083 8.25046 4434 ft 233 kts 294°
2026-05-07 20:05 40.42774 8.23120 4132 ft 232 kts 300°
2026-05-07 20:05 40.43808 8.21519 3825 ft 230 kts 321°
2026-05-07 20:05 40.45172 8.20441 3525 ft 228 kts 340°
2026-05-07 20:06 40.46706 8.19995 3222 ft 225 kts 359°
2026-05-07 20:06 40.48243 8.20197 2926 ft 221 kts 17°
2026-05-07 20:06 40.49634 8.20936 2636 ft 211 kts 27°
2026-05-07 20:06 40.50935 8.21723 2441 ft 198 kts 26°
2026-05-07 20:07 40.52132 8.22429 2447 ft 184 kts 26°
2026-05-07 20:07 40.53242 8.23091 2363 ft 171 kts 26°
2026-05-07 20:07 40.54344 8.23754 2115 ft 174 kts 26°
2026-05-07 20:07 40.55446 8.24414 1862 ft 173 kts 27°
2026-05-07 20:08 40.56551 8.25076 1604 ft 174 kts 27°
2026-05-07 20:08 40.57619 8.25715 1339 ft 164 kts 26°
2026-05-07 20:08 40.58665 8.26343 969 ft 164 kts 26°
2026-05-07 20:08 40.59676 8.26976 789 ft 157 kts 26°
2026-05-07 20:09 40.60663 8.27560 503 ft 153 kts 25°
2026-05-07 20:09 40.61619 8.28103 245 ft 147 kts 27°
2026-05-07 20:09 40.62529 8.28668 76 ft 142 kts 24°
2026-05-07 20:10 40.63597 8.29307 91 ft 33 kts 26°
2026-05-07 20:10 40.63791 8.29506 94 ft 37 kts 56°
2026-05-07 20:10 40.63739 8.29630 93 ft 31 kts 202°
2026-05-07 20:10 40.63661 8.29582 92 ft 15 kts 205°
2026-05-07 20:11 40.63561 8.29520 93 ft 16 kts 204°
2026-05-07 20:11 40.63455 8.29469 91 ft 17 kts 191°
2026-05-07 20:11 40.63340 8.29463 90 ft 17 kts 164°
2026-05-07 20:11 40.63232 8.29496 91 ft 7 kts 168°
2026-05-07 20:12 40.63205 8.29538 89 ft 0 kts 112°